SM5FGQ-2 Weather Reports


Display with metric or nautical units.
time (UTC)temp
F
wind
direction
speed
MPH
gust
MPH
rain 1hr
in
rain 24hr
in
rain mn
in
humidity
%
barometer
mb
20221128143040 37 280 0.0 2.0 0.00 0.02 0.02 94 1020.9
20221128140031 37 356 1.0 5.0 0.00 0.02 0.02 98 1020.9
20221128133041 37 325 0.0 3.0 0.01 0.02 0.02 97 1020.9
20221128130113 37 313 0.0 3.0 0.01 0.02 0.02 94 1020.9
20221128123100 36 340 0.0 2.0 0.00 0.01 0.01 94 1021.0
20221128120050 35 207 0.0 1.0 0.00 0.01 0.01 94 1021.1
20221128113042 35 336 0.0 3.0 0.00 0.01 0.01 93 1021.0
20221128110038 34 341 0.0 2.0 0.00 0.01 0.01 94 1021.0
20221128103023 34 325 0.0 3.0 0.00 0.01 0.01 94 1021.2
20221128100120 33 356 0.0 2.0 0.00 0.01 0.01 94 1021.3
20221128093111 32 339 0.0 2.0 0.00 0.01 0.01 94 1021.4
20221128090102 32 315 0.0 1.0 0.00 0.01 0.01 94 1021.2
20221128083054 32 312 0.0 2.0 0.01 0.01 0.01 94 1021.1
20221128080040 33 315 0.0 2.0 0.01 0.01 0.01 94 1021.0
20221128073030 33 0.0 0.0 0.00 0.00 0.00 94 1021.1
20221128070021 33 0.0 0.0 0.00 0.00 0.00 94 1021.0
20221128063114 33 135 0.0 1.0 0.00 0.00 0.00 94 1020.8
20221128060124 32 135 0.0 2.0 0.00 0.00 0.00 94 1020.8
20221128053116 32 135 0.0 1.0 0.00 0.00 0.00 94 1020.9
20221128050047 33 81 0.0 3.0 0.00 0.00 0.00 94 1020.8
20221128043038 33 129 0.0 2.0 0.00 0.00 0.00 94 1020.8
20221128040029 33 135 0.0 1.0 0.00 0.00 0.00 94 1021.0
20221128033025 33 343 0.0 1.0 0.00 0.00 0.00 94 1020.9
20221128030117 33 283 0.0 2.0 0.00 0.00 0.00 94 1021.0
20221128023123 33 114 0.0 3.0 0.00 0.00 0.00 94 1021.1
20221128020055 33 0.0 0.0 0.00 0.00 0.00 94 1021.1
20221128013045 33 165 0.0 2.0 0.00 0.00 0.00 94 1021.1
20221128010041 33 135 0.0 2.0 0.00 0.00 0.00 94 1021.2
20221128003031 33 184 0.0 2.0 0.00 0.00 0.00 94 1021.3
20221128000022 32 100 0.0 3.0 0.00 0.00 0.00 94 1021.3
20221127233108 32 135 0.0 2.0 0.00 0.00 0.00 94 1021.5
20221127230059 33 135 0.0 1.0 0.00 0.00 0.00 94 1021.6
20221127223110 33 0.0 1.0 0.00 0.00 0.00 94 1021.6
20221127220042 33 0.0 1.0 0.00 0.00 0.00 94 1021.6
20221127213032 33 112 0.0 2.0 0.00 0.00 0.00 94 1021.6
20221127210024 33 90 0.0 2.0 0.00 0.00 0.00 94 1021.7
20221127203114 33 163 0.0 2.0 0.00 0.00 0.00 94 1021.6
20221127200105 33 189 0.0 2.0 0.00 0.00 0.00 94 1021.5
20221127193056 32 67 0.0 2.0 0.00 0.00 0.00 94 1021.5
20221127190052 33 135 0.0 2.0 0.00 0.00 0.00 94 1021.7
20221127183043 32 152 0.0 3.0 0.00 0.00 0.00 94 1021.8
20221127180030 32 145 0.0 3.0 0.00 0.00 0.00 94 1021.9
20221127173021 32 0.0 0.0 0.00 0.00 0.00 94 1022.1
20221127170114 32 135 0.0 2.0 0.00 0.00 0.00 93 1022.1
20221127163124 32 135 0.0 2.0 0.00 0.00 0.00 93 1022.0
20221127160117 32 0.0 1.0 0.00 0.00 0.00 93 1022.2
20221127153046 32 315 0.0 1.0 0.00 0.00 0.00 93 1022.4
20221127150038 32 90 0.0 3.0 0.00 0.00 0.00 93 1022.5